Terug naar catalogus

USA 40 R/B DEB

LostHEO
NORAD 23391·DEBRIS·🇺🇸 United States

Gelanceerd Aug 8, 1989 vanaf Cape Canaveral Space Force Station

Loading…

Volgende Passages (komende 24 uur)

TLE

VerouderdSource: Space-Track

Epoch: Feb 27, 2023, 01:35 UTC

1 23391U 89061BP  23058.06659727  .00030521  00000-0  26727-1 0  9998
2 23391  56.9578 193.9938 3137679 215.6295 118.8236  8.60197864126151

Volg USA 40 R/B DEB in realtime met AllMySat

Download on the App Store